Date,TemperatureHighF,TemperatureAvgF,TemperatureLowF,DewpointHighF,DewpointAvgF,DewpointLowF,HumidityHigh,HumidityAvg,HumidityLow,PressureMaxIn,PressureMinIn,WindSpeedMaxMPH,WindSpeedAvgMPH,GustSpeedMaxMPH,PrecipitationSumIn
2012-1-1,33.5,25.0,18.8,31.9,18.9,10.6,95,77,65,30.36,29.78,34,11,38,0.02
2012-1-2,19.7,15.0,6.8,15.1,7.9,3.3,89,73,63,30.57,30.35,30,6,30,0.00
2012-1-3,27.5,17.3,6.3,19.5,12.4,3.5,92,81,63,30.53,29.91,14,0,14,0.00
2012-1-4,37.0,27.3,18.9,29.2,23.5,16.6,94,86,70,30.15,29.93,12,1,13,0.03
2012-1-5,42.1,30.7,18.6,35.6,27.7,16.9,96,89,73,29.99,29.65,6,0,7,0.03
2012-1-6,43.9,39.8,35.9,32.8,30.3,25.7,85,69,56,29.89,29.64,20,2,21,0.01
2012-1-7,36.0,28.0,19.4,29.2,22.4,17.6,94,80,66,30.24,29.89,19,2,19,0.00
2012-1-8,38.1,24.3,13.6,29.1,21.0,11.5,96,88,67,30.34,30.10,7,0,7,0.00
2012-1-9,47.4,34.9,24.7,31.5,27.2,22.5,95,75,53,30.11,29.91,14,1,17,0.00
2012-1-10,50.8,32.9,22.0,37.4,28.4,20.3,96,85,59,29.99,29.65,10,0,12,0.00
2012-1-11,37.8,24.9,12.6,35.0,21.2,5.6,97,86,73,29.92,29.61,26,6,27,0.01
2012-1-12,13.8,11.0,8.6,8.4,5.1,2.6,81,76,72,29.96,29.86,24,8,24,0.00
2012-1-13,12.3,9.1,3.4,7.3,4.5,0.1,89,81,74,30.08,29.96,15,2,19,0.00
2012-1-14,22.9,14.9,3.7,19.1,11.6,0.6,99,86,79,30.16,30.07,10,0,10,0.00
2012-1-15,41.8,26.7,14.1,27.1,21.7,11.9,95,83,53,30.17,29.74,15,0,16,0.01
2012-1-16,29.8,25.2,17.0,26.3,18.5,10.6,93,76,57,30.02,29.73,21,6,24,0.00
2012-1-17,17.0,10.3,-1.3,10.7,3.0,-5.1,84,72,55,30.35,30.00,20,6,23,0.00
2012-1-18,25.4,9.0,-2.4,19.6,3.0,-10.8,89,77,65,30.31,29.76,23,2,24,0.00
2012-1-19,2.2,-5.2,-11.6,-10.2,-14.6,-18.9,75,63,46,30.29,30.04,21,2,21,0.00
2012-1-20,10.7,3.6,-5.5,4.2,-1.9,-11.3,92,78,65,30.34,30.22,5,0,5,0.00
2012-1-21,3.7,-5.2,-7.6,0.7,-8.7,-11.4,89,84,82,30.34,30.26,1,0,2,0.00
2012-1-22,25.9,24.3,19.6,24.7,22.8,16.8,95,94,84,29.83,29.53,10,1,14,0.00
2012-1-23,27.0,23.0,19.5,24.2,20.3,16.0,95,89,86,29.98,29.52,18,4,19,0.00
2012-1-24,22.5,19.6,11.6,20.1,16.5,8.9,93,88,82,30.34,29.97,12,1,12,0.00
2012-1-25,32.8,27.6,22.3,29.9,24.8,20.1,94,89,78,30.34,29.87,12,1,16,0.10
2012-1-26,38.7,29.2,21.2,31.3,25.3,17.7,96,86,70,29.88,29.71,22,2,22,0.09
2012-1-27,34.0,25.8,18.1,32.6,22.0,14.6,95,86,72,29.99,29.74,21,2,21,0.07
2012-1-28,27.9,21.3,14.8,20.1,15.3,11.2,92,78,63,30.05,29.96,15,1,16,0.00
2012-1-29,21.9,15.9,10.4,19.7,9.8,5.6,91,77,62,30.25,30.01,10,1,11,0.00
2012-1-30,44.5,30.0,18.7,33.2,24.6,13.6,96,81,59,30.01,29.63,7,0,7,0.09
2012-1-31,45.0,34.2,27.2,35.8,30.6,24.9,97,87,70,30.03,29.56,16,2,18,0.01
2012-2-1,35.7,32.4,29.8,33.5,31.1,28.3,97,95,92,30.14,30.02,4,0,7,0.00
2012-2-2,33.2,30.6,26.7,32.3,29.6,25.7,97,96,94,30.45,30.13,5,0,5,0.00
2012-2-3,32.9,30.0,22.7,30.3,28.0,20.9,96,92,85,30.52,30.43,11,1,11,0.01
2012-2-4,30.7,26.4,23.1,28.1,25.0,21.9,96,94,88,30.49,30.37,12,2,14,0.00
2012-2-5,29.5,27.9,26.5,27.2,26.0,24.4,95,92,89,30.41,30.23,10,1,11,0.00
2012-2-6,42.9,31.7,21.6,32.3,26.8,19.9,100,83,65,30.32,30.09,20,2,21,0.00
2012-2-7,30.7,23.8,13.2,24.4,15.4,4.7,77,70,57,30.56,30.32,15,4,20,0.00
2012-2-8,30.4,16.9,5.4,10.1,5.4,0.0,86,63,37,30.55,30.30,10,0,10,0.00
2012-2-9,38.2,24.2,8.6,26.7,17.1,5.0,90,75,58,30.31,29.93,27,2,27,0.00
2012-2-10,26.9,11.1,3.5,18.4,-1.2,-9.0,77,57,41,30.63,30.03,24,9,27,0.00
2012-2-11,17.9,8.7,-1.3,0.8,-5.0,-11.3,67,54,38,30.72,30.57,21,4,22,0.00
2012-2-12,31.2,14.4,2.4,6.2,1.8,-2.7,80,60,29,30.57,30.14,9,0,10,0.00
2012-2-13,29.7,23.1,11.6,26.1,17.6,5.1,96,80,60,30.15,29.78,13,0,13,0.00
2012-2-14,34.4,27.4,20.2,28.4,24.6,18.8,95,89,76,29.83,29.74,6,0,6,0.10
2012-2-15,36.5,27.6,16.3,31.7,24.7,14.1,100,89,78,30.07,29.82,7,0,7,0.01
2012-2-16,37.7,26.9,17.1,26.5,21.1,14.7,96,80,55,30.15,30.07,16,1,16,0.00
2012-2-17,38.7,28.4,16.8,27.6,21.2,14.1,96,76,60,30.20,29.98,18,3,19,0.00
2012-2-18,35.4,23.1,14.1,21.2,15.1,10.0,90,73,50,30.31,30.20,10,1,10,0.00
2012-2-19,43.4,21.6,9.8,25.1,16.6,7.7,95,82,45,30.21,30.07,10,0,13,0.00
2012-2-20,43.2,31.5,23.2,30.9,24.7,20.3,96,78,48,30.12,29.65,14,0,15,0.00
2012-2-21,34.4,31.8,26.4,31.7,28.4,22.5,97,87,76,29.65,29.53,17,1,17,0.15
2012-2-22,33.1,24.7,12.6,25.3,19.9,10.4,95,83,65,29.60,29.44,7,0,10,0.12
2012-2-23,36.8,29.9,22.6,28.0,24.3,20.0,93,80,65,29.74,29.46,13,2,13,0.16
2012-2-24,28.7,22.9,12.9,26.0,15.8,6.3,92,74,61,30.13,29.74,22,6,23,0.00
2012-2-25,26.7,17.6,6.5,19.5,10.8,2.8,86,75,64,30.30,30.09,15,1,18,0.00
2012-2-26,36.6,28.6,24.1,29.2,22.2,16.3,86,77,67,30.09,29.64,18,2,18,0.01
2012-2-27,26.9,21.4,14.2,19.7,16.1,11.6,93,80,66,30.48,30.07,18,2,19,0.00
2012-2-28,33.3,29.6,20.4,31.1,26.1,17.8,95,87,75,30.41,29.63,14,0,14,0.95
2012-2-29,33.8,32.6,31.2,32.3,31.0,28.3,96,94,89,29.73,29.23,14,2,15,0.71
2012-3-1,37.1,32.0,29.5,31.1,29.0,26.7,96,89,76,29.84,29.73,7,1,8,0.26
2012-3-2,35.1,29.7,24.0,30.6,25.7,22.2,96,85,68,29.78,29.64,13,1,16,0.18
2012-3-3,26.5,19.4,10.3,21.5,14.1,6.2,86,79,71,29.93,29.64,20,4,20,0.00
2012-3-4,25.5,14.7,4.1,16.8,9.5,1.3,90,80,63,30.17,29.92,12,1,13,0.00
2012-3-5,36.9,24.1,9.1,27.9,19.3,6.5,94,82,55,30.26,29.89,17,1,20,0.05
2012-3-6,56.9,40.0,27.5,42.3,33.4,24.4,96,79,55,29.89,29.55,11,0,15,0.03
2012-3-7,43.9,36.2,25.5,42.3,33.2,20.3,98,89,78,30.01,29.53,18,3,19,0.06
2012-3-8,36.6,28.2,20.6,27.8,19.5,6.7,89,71,46,30.44,30.00,25,5,27,0.00
2012-3-9,34.0,24.8,14.3,22.1,11.9,5.0,71,58,40,30.65,30.17,15,2,16,0.00
2012-3-10,63.8,48.0,31.2,39.6,31.2,22.1,74,54,37,30.17,29.91,15,1,17,0.00
2012-3-11,63.8,52.7,37.8,44.8,37.1,30.4,77,56,43,29.98,29.75,9,0,14,0.00
2012-3-12,50.3,46.2,40.8,48.4,44.4,38.4,98,93,78,29.89,29.62,8,0,11,0.27
2012-3-13,65.5,45.9,27.7,44.0,37.0,26.5,98,75,35,30.06,29.83,11,0,11,0.00
2012-3-14,67.7,54.9,43.4,51.2,45.4,31.5,94,72,46,29.89,29.71,11,1,13,0.00
2012-3-15,60.1,49.4,40.1,37.2,30.4,23.4,81,49,38,30.02,29.88,12,2,14,0.00
2012-3-16,79.3,56.3,36.6,61.4,47.4,33.6,93,74,52,29.97,29.76,13,0,13,0.00
2012-3-17,72.8,59.9,53.9,63.1,56.6,52.5,98,89,72,29.78,29.74,14,1,19,0.00
2012-3-18,77.3,70.7,61.5,61.1,59.5,57.6,87,69,55,29.74,29.63,12,1,19,0.00
2012-3-19,78.7,66.9,59.6,63.7,59.5,57.8,97,79,52,29.69,29.54,14,1,19,0.35
2012-3-20,63.1,57.8,53.8,59.2,54.7,51.9,99,89,75,29.92,29.65,6,0,10,0.08
2012-3-21,63.0,57.3,51.9,57.0,54.6,50.9,98,91,79,30.03,29.85,11,0,12,0.02
2012-3-22,67.2,59.4,55.3,61.1,57.5,54.2,98,94,78,30.05,29.91,9,1,10,0.02
2012-3-23,81.5,62.9,56.8,61.9,57.1,54.6,99,83,47,29.95,29.83,10,1,10,0.01
2012-3-24,72.0,58.3,50.7,57.8,53.2,47.4,97,84,58,30.02,29.86,17,2,17,0.01
2012-3-25,57.0,47.2,36.6,49.5,34.8,25.8,91,65,38,30.23,30.02,16,4,16,0.01
2012-3-26,49.7,40.2,35.6,34.3,30.7,25.7,88,70,40,30.30,29.91,16,2,19,0.00
2012-3-27,68.8,53.9,40.6,52.6,42.4,32.3,86,66,43,29.91,29.59,22,2,24,0.00
2012-3-28,52.0,44.3,35.0,39.2,36.0,33.2,93,73,57,30.07,29.81,18,3,18,0.00
2012-3-29,61.1,48.2,33.8,47.5,38.4,32.3,97,71,49,30.09,29.78,16,1,16,0.00
2012-3-30,52.2,45.6,40.5,46.8,42.6,38.4,95,89,81,29.89,29.75,9,0,9,0.01
2012-3-31,51.7,45.8,40.3,47.7,43.7,38.9,97,92,86,29.87,29.73,9,0,10,0.00
2012-4-1,66.2,53.9,46.1,48.4,45.3,42.8,93,75,47,29.74,29.55,14,1,16,0.01
2012-4-2,72.3,60.0,48.8,54.5,45.2,37.1,86,58,46,29.79,29.60,13,1,13,0.00
2012-4-3,62.6,52.1,43.7,53.2,39.3,30.4,87,65,31,30.08,29.77,21,6,21,0.00
2012-4-4,61.8,50.4,37.4,40.2,31.0,26.2,83,50,30,30.09,29.92,15,2,16,0.00
2012-4-5,59.0,48.9,37.6,34.9,30.5,25.1,87,51,31,30.16,29.98,9,1,15,0.00
2012-4-6,37.5,33.9,31.7,33.9,31.3,29.2,93,90,87,30.25,30.16,1,0,2,0.00
2012-4-9,45.3,40.3,34.8,30.2,24.0,20.5,67,52,42,30.18,30.08,11,4,24,0.01
2012-4-10,41.7,33.4,22.4,21.7,19.6,17.0,91,59,37,30.33,30.19,10,4,21,0.02
2012-4-11,50.5,37.3,26.9,32.6,23.6,18.2,89,60,37,30.43,30.23,5,1,13,0.00
2012-4-12,64.2,46.0,26.0,30.7,27.3,24.5,97,57,25,30.23,30.01,2,0,15,0.00
2012-4-13,52.8,50.3,45.8,49.8,40.6,30.1,96,72,42,30.00,29.71,2,1,15,0.15
2012-4-14,74.0,57.4,38.9,55.8,48.8,38.1,99,77,37,29.82,29.57,2,0,11,0.01
2012-4-15,71.5,56.4,47.3,65.0,53.4,46.1,97,90,73,29.57,29.13,28,2,28,0.62
2012-4-16,47.5,39.1,34.3,46.7,34.2,30.0,97,83,65,30.22,29.21,30,7,30,0.17
2012-4-17,59.4,45.4,28.7,47.7,37.8,27.1,97,77,54,30.33,29.96,11,1,14,0.93
2012-4-18,60.5,53.8,46.2,52.0,47.1,37.0,96,79,58,30.00,29.78,14,2,14,0.11
2012-4-19,46.5,42.4,37.7,38.8,35.5,28.9,94,77,58,30.04,29.93,13,1,13,0.08
2012-4-20,56.0,45.0,33.7,38.6,30.6,25.0,90,59,37,30.12,29.98,17,3,17,0.00
2012-4-21,50.9,44.0,38.1,43.6,39.6,34.7,95,85,65,30.02,29.89,15,0,16,0.21
2012-4-22,53.1,46.4,38.1,42.8,40.7,36.3,96,82,62,30.24,29.96,12,1,12,0.04
2012-4-23,63.7,47.8,31.9,46.0,38.8,30.9,98,75,41,30.23,29.85,10,1,11,0.00
2012-4-24,73.2,57.7,43.7,52.3,45.1,41.5,95,67,35,29.85,29.54,10,1,12,0.01
2012-4-25,71.4,60.2,48.8,55.2,50.9,45.0,93,73,53,29.74,29.51,22,2,22,0.07
2012-4-26,59.0,48.7,36.9,49.4,33.9,22.6,85,59,30,30.15,29.74,22,4,22,0.00
2012-4-27,47.6,42.0,37.2,32.0,28.5,25.3,81,59,43,30.20,30.15,9,0,9,0.00
2012-4-28,51.3,43.3,38.7,40.9,34.5,23.0,95,74,38,30.22,29.95,4,1,18,0.14
2012-4-29,56.2,50.6,42.2,45.6,43.3,40.5,94,77,63,30.24,30.02,11,0,11,0.05
2012-4-30,64.4,53.0,44.9,53.3,48.4,43.8,98,85,64,30.02,29.80,11,0,11,0.02
2012-5-1,73.5,59.5,50.2,62.1,55.4,48.8,97,87,67,29.81,29.53,15,1,16,0.46
2012-5-2,80.3,66.3,53.1,66.4,59.3,52.3,99,81,40,29.74,29.48,9,0,10,0.99
2012-5-3,78.8,67.5,57.5,67.4,62.0,54.3,98,83,62,29.88,29.67,24,2,24,0.41
2012-5-4,72.6,61.1,51.8,60.8,54.7,49.2,96,81,58,29.96,29.78,15,2,15,0.56
2012-5-5,59.0,56.2,54.6,55.8,54.1,53.5,96,92,87,29.98,29.91,8,1,9,0.02
2012-5-6,63.2,59.5,52.4,58.6,56.8,51.2,98,91,83,29.99,29.81,10,2,29,0.74
2012-5-7,64.1,56.7,48.2,56.9,47.3,41.8,100,72,47,29.98,29.87,15,2,17,0.28
2012-5-8,59.0,52.0,45.4,52.9,46.5,42.6,95,82,62,29.95,29.84,17,1,17,0.18
2012-5-9,62.4,53.4,43.7,47.8,43.2,37.3,94,71,41,30.07,29.94,10,1,11,0.14
2012-5-10,73.4,58.1,39.6,52.0,45.8,38.5,98,68,40,29.96,29.80,13,0,13,0.10
2012-5-11,59.5,57.3,54.9,53.0,50.3,47.0,87,78,65,29.81,29.76,10,0,10,0.02
2012-5-12,66.3,55.6,45.2,48.1,41.2,32.2,97,65,28,30.36,30.23,3,1,11,0.01
2012-5-13,74.9,60.9,40.0,51.6,43.5,36.4,98,59,26,30.28,30.04,10,0,12,0.00
2012-5-14,85.6,65.1,44.2,56.1,48.1,42.3,97,62,24,30.04,29.78,9,0,10,0.00
2012-5-15,71.0,62.5,49.7,50.6,44.3,38.2,93,54,33,30.05,29.77,16,3,18,0.00
2012-5-16,67.7,56.2,41.4,47.2,39.6,33.4,95,58,29,30.16,29.99,8,1,9,0.00
2012-5-17,81.1,65.4,48.8,54.8,48.4,39.1,73,56,36,30.01,29.71,20,1,20,0.00
2012-5-18,91.6,75.9,62.7,65.4,55.4,49.8,69,51,33,29.75,29.63,13,1,13,0.00
2012-5-19,85.0,72.9,61.0,67.3,60.8,55.1,92,67,51,29.80,29.67,14,1,14,0.01
2012-5-20,60.8,55.5,43.9,57.9,50.2,42.0,95,84,54,30.18,29.76,19,4,19,0.01
2012-5-21,73.8,58.1,40.6,55.0,45.4,39.5,98,68,34,30.26,30.06,9,0,9,0.00
2012-5-22,85.5,68.3,50.9,57.8,49.3,41.6,85,53,33,30.06,29.61,10,1,11,0.00
2012-5-23,84.1,69.6,61.5,66.3,56.5,49.0,96,65,43,29.64,29.31,21,1,21,0.39
2012-5-24,62.7,60.1,55.0,61.9,58.2,52.0,98,94,82,29.70,29.29,21,2,21,0.17
2012-5-25,57.0,53.4,49.5,53.8,50.8,48.1,97,91,79,29.97,29.70,9,0,9,0.03
2012-5-26,63.7,60.6,57.5,62.2,58.4,54.3,97,92,83,30.10,29.85,4,1,15,0.05
2012-5-27,86.2,73.3,62.4,76.2,68.1,60.5,97,85,67,29.82,29.51,3,1,22,0.05
2012-5-28,77.3,68.3,54.8,66.6,58.9,46.4,98,73,53,29.74,29.57,14,1,14,0.24
2012-5-29,60.7,55.4,51.1,51.8,47.1,41.2,89,74,64,29.93,29.70,16,1,16,0.00
2012-5-30,59.4,53.3,47.8,48.4,44.0,41.3,84,71,55,30.03,29.92,15,2,15,0.00
2012-5-31,62.3,54.4,44.7,51.0,45.7,40.0,97,75,46,30.05,29.97,10,1,10,0.04
2012-6-1,69.0,55.8,40.3,53.5,43.2,38.0,98,68,34,29.99,29.78,6,0,6,0.00
2012-6-2,72.1,60.0,45.6,55.8,49.2,44.5,98,72,41,29.78,29.73,3,1,14,0.00
2012-6-3,75.0,67.0,48.9,61.6,56.6,48.0,98,70,53,29.82,29.75,8,0,8,0.00
2012-6-4,81.9,68.1,53.3,64.3,58.0,51.8,98,73,43,29.91,29.80,6,0,9,0.00
2012-6-5,81.8,68.6,55.3,63.0,57.6,53.0,98,72,41,29.98,29.89,10,1,10,0.00
2012-6-6,82.5,69.8,56.1,64.3,58.3,54.4,96,69,44,30.02,29.95,7,0,8,0.00
2012-6-7,81.9,70.4,59.0,68.8,61.5,53.6,88,74,57,30.06,29.93,9,0,10,0.00
2012-6-8,84.5,71.8,62.9,72.8,63.6,58.7,95,76,54,29.94,29.69,9,0,10,0.03
2012-6-9,89.8,75.1,60.0,68.4,60.6,55.4,91,63,36,29.72,29.58,11,0,11,0.00
2012-6-10,90.2,75.8,61.2,72.3,64.4,57.1,95,70,46,29.73,29.50,20,1,27,1.07
2012-6-11,71.7,63.6,55.1,63.6,55.0,42.0,100,75,51,29.98,29.64,17,2,17,0.26
2012-6-12,66.1,57.3,49.7,49.5,44.9,42.0,93,64,45,30.16,29.98,14,2,17,0.00
2012-6-13,73.7,60.9,48.4,59.7,52.6,47.2,97,76,53,30.11,29.88,4,0,12,0.00
2012-6-14,67.2,63.4,59.5,66.4,59.4,51.3,98,88,71,29.91,29.72,15,0,20,1.17
2012-6-15,78.0,68.8,58.7,67.6,63.4,58.0,100,84,57,29.98,29.86,9,0,9,0.07
2012-6-16,79.2,68.5,59.0,72.3,63.9,54.8,98,86,63,29.94,29.75,13,0,14,0.02
2012-6-17,76.5,63.0,52.8,66.1,59.0,51.6,97,88,61,29.85,29.41,11,0,11,0.02
2012-6-18,87.8,74.5,64.5,75.7,66.9,60.0,99,81,44,29.60,29.38,11,0,11,0.04
2012-6-19,89.4,76.4,64.0,77.7,69.7,60.5,96,81,62,29.77,29.50,26,1,38,0.02
2012-6-20,78.4,70.9,61.3,71.5,66.8,60.0,97,87,78,29.85,29.57,13,1,15,0.01
2012-6-21,74.3,66.0,57.8,60.7,58.1,55.6,98,78,53,29.98,29.84,15,2,15,0.02
2012-6-22,78.1,67.4,56.0,63.3,57.8,54.2,97,74,46,30.00,29.91,12,1,12,0.02
2012-6-23,66.7,61.7,60.4,63.6,59.6,58.2,96,93,89,29.93,29.87,1,0,1,0.01
2012-6-24,82.7,75.9,62.4,71.0,64.4,55.6,98,68,56,30.05,29.87,13,2,13,0.01
2012-6-25,77.1,66.6,56.9,56.8,53.0,49.0,88,63,43,30.15,29.98,9,1,11,0.01
2012-6-26,79.3,66.8,53.4,59.5,55.8,51.8,96,70,42,30.02,29.70,9,0,10,0.00
2012-6-27,91.6,77.3,64.1,79.1,68.4,58.1,89,75,55,29.71,29.57,6,0,7,0.00
2012-6-28,84.5,76.3,61.3,74.1,63.4,54.4,93,67,38,29.91,29.66,21,2,21,0.01
2012-6-29,86.9,72.2,57.6,70.9,63.4,56.5,98,77,41,29.87,29.73,5,0,5,0.00
2012-6-30,86.3,75.1,63.4,70.2,65.3,59.1,99,75,43,29.83,29.76,6,0,7,0.00
2012-7-1,91.3,77.8,65.7,77.3,71.3,63.9,97,82,56,29.87,29.77,10,0,11,0.00
2012-7-2,94.8,82.0,70.3,81.1,74.5,69.4,98,80,58,29.81,29.68,8,0,9,0.00
2012-7-3,90.0,77.2,68.2,78.9,71.6,66.6,96,84,64,29.81,29.67,13,1,15,0.00
2012-7-4,96.1,84.1,76.7,82.4,77.4,74.8,97,82,61,29.73,29.66,1,0,10,0.00
2012-7-5,88.8,83.1,73.3,79.0,73.8,68.2,94,74,55,29.89,29.73,13,2,13,0.00
2012-7-6,97.6,82.0,66.1,82.6,73.2,62.9,95,76,54,29.97,29.76,18,1,18,0.01
2012-7-7,82.1,71.5,62.7,66.4,61.8,56.1,95,74,47,30.10,29.93,16,3,17,0.24
2012-7-8,85.8,75.9,64.9,68.1,64.9,61.7,93,71,48,30.13,30.02,9,1,9,0.00
2012-7-9,82.4,73.6,62.8,66.7,60.0,53.5,93,65,41,30.10,30.05,15,2,17,0.00
2012-7-10,85.2,71.4,58.6,64.2,59.7,53.1,98,71,37,30.14,30.05,7,0,7,0.00
2012-7-11,86.8,71.5,57.8,67.1,61.8,56.7,98,75,43,30.12,29.99,5,0,6,0.00
2012-7-12,87.1,72.2,58.8,71.1,64.7,57.8,98,79,52,30.01,29.91,10,0,10,0.00
2012-7-13,88.1,74.4,67.5,75.4,68.2,63.9,92,82,59,29.94,29.85,12,0,12,0.01
2012-7-14,72.5,65.7,64.0,68.8,64.1,62.8,98,95,89,29.96,29.92,6,0,7,0.00
2012-7-15,90.4,80.6,65.4,75.6,71.8,64.5,99,76,54,30.00,29.88,5,0,5,0.00
2012-7-16,95.1,81.3,69.2,74.0,70.2,67.7,96,72,44,29.88,29.66,14,0,19,0.00
2012-7-17,92.4,79.8,71.0,78.1,72.7,68.7,96,80,59,29.83,29.69,14,2,14,0.00
2012-7-18,81.6,74.0,71.2,74.4,69.9,67.8,92,87,72,29.89,29.76,12,1,14,0.01
2012-7-19,71.6,69.8,68.3,68.0,67.2,66.2,95,92,88,29.90,29.89,6,0,6,0.00
2012-7-20,86.3,77.9,63.3,73.0,68.7,62.4,97,74,59,30.09,29.96,11,0,11,0.00
2012-7-21,101.9,77.0,67.6,80.1,69.6,66.0,97,80,46,30.03,29.90,6,0,6,0.21
2012-7-22,85.6,77.4,69.4,76.8,71.3,63.7,97,82,70,29.94,29.81,6,0,6,0.00
2012-7-23,94.8,81.1,70.8,75.1,70.6,63.3,99,74,40,29.91,29.83,13,1,14,0.00
2012-7-24,79.5,73.1,68.7,73.4,70.5,67.5,99,92,79,29.95,29.73,11,1,11,1.92
2012-7-25,89.8,78.4,70.9,79.1,73.2,69.7,97,85,63,29.73,29.52,12,1,13,0.02
2012-7-26,82.2,73.6,65.2,72.7,63.8,58.9,95,73,50,29.80,29.58,16,2,16,0.01
2012-7-27,75.8,67.7,60.9,64.7,61.7,59.1,97,82,62,30.08,29.79,12,1,12,0.00
2012-7-28,84.8,71.0,58.2,70.0,64.3,57.4,99,81,54,30.12,29.97,8,0,9,0.00
2012-7-29,81.4,71.2,66.2,71.9,67.8,65.3,98,90,67,30.00,29.90,5,0,6,1.11
2012-7-30,85.9,74.3,64.5,75.1,67.2,62.4,99,81,50,29.91,29.83,11,1,13,0.00
2012-7-31,85.7,73.1,63.1,69.9,65.3,59.8,98,79,49,29.98,29.90,6,0,6,0.00
2012-8-1,89.0,74.6,63.2,78.2,69.1,62.3,98,84,64,29.91,29.72,10,0,12,0.02
2012-8-2,85.8,75.5,65.0,70.1,65.7,62.5,97,73,51,29.83,29.75,14,1,16,0.00
2012-8-3,89.1,75.6,63.4,72.8,67.4,62.5,99,78,51,29.85,29.68,24,0,31,0.70
2012-8-4,77.1,67.9,63.1,65.4,62.6,58.5,98,84,58,29.92,29.71,16,0,16,0.20
2012-8-5,73.6,65.1,56.2,58.6,55.5,50.5,95,73,51,30.17,29.92,17,2,17,0.00
2012-8-6,86.1,68.5,52.8,69.8,61.9,52.0,98,82,52,30.10,29.90,6,0,7,0.00
2012-8-7,84.9,72.8,62.1,66.2,62.4,56.4,98,73,43,29.97,29.89,10,1,12,0.00
2012-8-8,78.1,68.2,61.1,67.5,62.7,59.1,96,83,66,29.97,29.89,14,1,15,0.00
2012-8-9,76.3,66.4,57.3,65.6,59.7,55.6,98,81,54,30.07,29.93,18,3,19,0.00
2012-8-10,74.7,64.2,54.1,57.5,54.7,50.9,94,73,49,30.14,30.05,12,2,12,0.00
2012-8-11,76.2,62.1,48.3,61.3,54.1,47.4,98,78,44,30.10,29.97,7,0,8,0.00
2012-8-12,64.3,61.0,58.2,61.2,58.7,56.7,97,92,82,30.00,29.96,4,0,5,0.04
2012-8-13,76.9,64.8,52.8,66.6,58.8,51.9,99,83,55,30.02,29.92,13,1,13,0.01
2012-8-14,77.3,64.9,54.4,62.9,57.9,53.6,100,80,46,29.96,29.84,4,0,4,0.00
2012-8-15,80.5,69.2,59.0,70.8,65.0,56.7,98,87,68,29.84,29.64,9,0,11,0.83
2012-8-16,70.1,62.8,52.3,67.4,54.7,48.0,93,76,55,30.00,29.72,16,3,20,0.00
2012-8-17,70.7,59.0,49.1,53.0,49.2,46.1,95,72,44,30.10,30.00,9,1,11,0.00
2012-8-18,77.1,61.7,49.0,58.4,52.9,48.1,100,76,41,30.02,29.93,9,0,11,0.14
2012-8-19,72.8,62.3,51.8,59.5,54.7,48.4,98,79,45,30.01,29.94,12,1,12,0.03
2012-8-20,75.3,59.5,45.8,56.8,49.0,44.4,98,73,35,30.02,29.96,10,0,10,0.00
2012-8-21,79.8,61.8,47.3,59.0,53.4,46.4,98,78,40,30.07,29.97,4,0,4,0.00
2012-8-22,76.9,62.1,51.1,64.5,58.4,50.3,98,89,55,29.97,29.85,9,0,9,0.04
2012-8-23,81.2,70.6,62.7,72.8,65.3,60.4,96,84,69,29.86,29.71,15,0,17,0.31
2012-8-24,86.5,72.0,60.7,76.1,67.9,59.8,99,88,67,29.83,29.74,7,0,10,0.07
2012-8-25,71.0,67.1,61.8,68.4,65.2,60.9,98,94,86,29.92,29.83,5,0,5,0.07
2012-8-26,82.5,70.6,61.7,70.5,65.3,60.5,98,85,55,30.00,29.90,5,0,6,0.00
2012-8-27,82.0,67.9,55.8,64.3,60.5,55.0,99,80,47,30.11,30.00,6,0,7,0.00
2012-8-28,82.5,70.2,59.6,71.8,65.1,58.8,99,85,66,30.10,29.93,7,0,7,0.00
2012-8-29,89.8,74.4,64.6,71.8,66.5,63.3,96,79,47,29.94,29.72,10,0,11,0.00
2012-8-30,87.5,75.2,67.4,71.9,66.3,61.6,89,75,42,29.88,29.66,10,1,11,0.00
2012-8-31,82.2,69.9,58.6,62.8,54.8,47.4,85,62,30,30.07,29.88,13,2,13,0.00
2012-9-1,82.0,67.2,55.2,61.0,55.1,48.8,94,68,41,30.10,29.98,11,1,11,0.00
2012-9-2,86.7,69.5,53.2,71.9,63.1,51.8,98,82,57,29.99,29.78,9,0,10,0.00
2012-9-3,85.4,73.1,65.6,68.7,66.4,60.5,97,81,46,29.87,29.80,10,1,10,0.00
2012-9-4,87.7,70.9,60.6,69.6,61.7,54.1,99,77,36,29.85,29.71,2,0,11,0.00
2012-9-5,78.7,66.2,54.5,59.3,55.1,47.4,96,71,40,29.88,29.68,4,1,13,0.03
2012-9-6,80.1,67.6,48.9,60.5,56.2,47.8,98,70,39,29.96,29.84,8,0,9,0.01
2012-9-7,67.5,61.5,55.7,57.5,51.9,45.1,93,72,51,30.02,29.85,18,3,19,0.02
2012-9-8,76.7,59.4,45.5,53.2,47.9,43.8,96,69,40,30.03,29.79,21,3,23,0.00
2012-9-9,69.4,59.1,50.1,53.5,50.9,48.6,95,76,51,30.18,30.03,12,1,13,0.00
2012-9-10,80.2,62.8,45.4,55.6,51.1,44.2,98,70,37,30.08,29.79,14,1,17,0.00
2012-9-11,92.3,74.0,60.4,60.3,56.5,52.8,81,57,30,29.80,29.64,16,1,16,0.00
2012-9-12,71.5,58.2,51.3,58.5,52.2,45.7,97,82,48,30.23,29.78,14,1,19,0.10
2012-9-13,72.6,58.0,47.8,53.1,45.4,32.9,98,70,25,30.34,30.22,12,0,15,0.00
2012-9-14,73.5,56.5,41.3,48.3,43.2,38.0,94,66,30,30.32,30.22,9,0,9,0.00
2012-9-15,82.0,61.2,46.4,53.7,47.9,42.3,95,66,31,30.23,29.94,11,0,12,0.00
2012-9-16,77.6,64.6,53.4,59.0,52.6,44.7,88,67,45,29.94,29.83,15,1,17,0.00
2012-9-17,61.7,54.7,48.0,50.8,43.9,35.7,95,69,44,29.99,29.86,16,3,16,0.32
2012-9-18,58.1,49.0,40.1,42.1,38.7,32.3,94,70,40,30.04,29.87,12,1,14,0.00
2012-9-19,72.2,56.6,45.2,51.7,43.8,38.8,89,64,37,29.87,29.63,20,2,24,0.00
2012-9-20,63.4,54.0,45.1,44.4,39.8,35.3,89,60,37,29.92,29.83,20,2,20,0.00
2012-9-21,59.4,53.6,45.6,47.1,42.9,34.8,93,69,44,29.87,29.80,15,2,15,0.00
2012-9-22,55.6,48.2,38.1,40.5,35.5,29.0,85,63,40,30.26,29.89,16,3,26,0.00
2012-9-23,57.2,43.0,30.9,37.6,32.8,29.3,96,71,38,30.34,30.18,13,1,15,0.00
2012-9-24,74.3,51.1,31.4,46.3,38.2,29.9,95,68,29,30.18,29.74,13,0,13,0.00
2012-9-25,63.7,52.6,39.6,45.1,41.0,36.9,93,67,39,29.95,29.76,11,1,11,0.00
2012-9-26,61.1,46.3,34.4,42.2,37.5,33.4,98,75,43,30.22,29.94,12,1,13,0.00
2012-9-27,66.3,47.3,33.2,44.3,38.4,32.1,98,76,38,30.30,30.17,7,0,7,0.00
2012-9-28,73.4,52.6,37.3,48.9,42.7,36.3,98,75,31,30.23,30.09,6,0,7,0.00
2012-9-29,77.5,56.9,40.4,52.0,45.8,39.1,97,72,35,30.11,29.98,8,0,8,0.00
2012-9-30,69.0,48.4,41.8,48.2,44.3,40.8,100,88,42,30.02,29.96,5,0,5,0.00
2012-10-1,69.0,58.6,46.6,50.0,44.8,38.7,86,62,39,29.93,29.82,8,4,20,0.00
2012-10-2,70.7,53.6,36.4,48.3,40.7,34.8,96,65,38,29.96,29.83,3,0,10,0.00
2012-10-3,76.6,56.7,37.8,47.2,42.6,36.8,97,65,29,29.91,29.81,1,0,12,0.00
2012-10-4,61.4,47.9,41.3,46.5,36.7,31.0,79,66,51,30.17,29.75,6,2,22,0.00
2012-10-5,45.2,40.3,32.1,33.1,28.3,26.5,80,62,52,30.19,30.13,22,4,25,0.00
2012-10-6,43.0,37.0,27.6,30.8,27.5,23.1,89,69,46,30.31,30.17,16,3,16,0.00
2012-10-7,52.4,35.6,22.5,28.0,24.2,20.0,100,68,30,30.26,29.90,16,0,16,0.00
2012-10-8,63.8,47.5,30.6,42.6,34.1,24.9,82,61,37,29.91,29.59,14,1,14,0.00
2012-10-9,49.9,44.0,36.1,41.8,34.5,26.0,94,70,49,30.00,29.72,20,2,21,0.04
2012-10-10,51.6,41.8,28.0,34.3,28.3,23.8,88,61,40,30.13,29.85,12,1,14,0.00
2012-10-11,52.2,43.4,28.4,35.4,28.3,16.9,87,57,32,30.41,29.81,20,4,20,0.00
2012-10-12,51.7,37.5,20.7,29.2,22.0,18.5,98,60,27,30.47,30.04,11,0,12,0.00
2012-10-13,53.4,50.0,47.3,52.6,46.0,27.3,97,87,44,30.04,29.67,12,1,16,0.02
2012-10-14,57.0,49.6,44.3,48.3,41.8,34.4,96,77,43,29.88,29.71,21,4,21,0.01
2012-10-15,61.3,48.3,30.3,42.4,37.4,28.1,96,68,45,29.97,29.73,7,0,7,0.00
2012-10-16,65.2,55.3,45.1,51.0,46.2,41.9,95,72,58,29.73,29.34,8,0,8,0.00
2012-10-17,61.1,51.5,43.6,51.5,45.4,41.2,98,81,55,29.35,29.12,13,1,14,0.00
2012-10-18,48.5,44.6,41.8,43.8,41.6,40.2,95,89,79,29.39,29.17,7,0,7,0.02
2012-10-19,62.6,47.2,33.9,58.8,44.0,30.2,98,89,66,29.73,29.39,10,2,14,0.10
2012-10-20,62.3,46.1,32.5,55.2,42.6,29.1,96,88,67,29.83,29.73,7,0,10,0.00
2012-10-21,83.7,53.3,37.7,56.2,45.3,35.1,96,78,37,29.88,29.75,15,1,15,0.00
2012-10-22,69.2,55.6,45.5,51.4,47.2,42.2,91,74,49,29.93,29.83,15,3,17,0.00
2012-10-23,66.2,57.7,51.9,64.4,55.5,49.7,98,93,84,29.83,29.65,13,0,13,0.21
2012-10-24,59.0,53.6,47.0,58.0,52.1,45.0,98,95,91,29.84,29.73,18,4,19,0.00
2012-10-25,47.0,39.0,35.4,45.3,36.7,30.2,96,91,81,30.18,29.67,25,7,25,0.02
2012-10-26,42.9,33.7,26.0,31.2,27.0,23.7,94,77,56,30.40,30.18,15,1,16,0.00
2012-10-27,43.0,31.0,21.7,28.1,24.8,20.1,97,80,46,30.41,30.32,7,0,10,0.00
2012-10-28,46.2,32.3,22.7,30.6,25.9,20.8,100,79,49,30.38,30.30,9,0,14,0.00
2012-10-29,45.4,35.7,26.1,31.9,27.2,22.4,89,72,57,30.34,30.26,6,0,6,0.00
2012-10-30,46.8,34.6,23.6,33.6,25.4,15.6,96,72,42,30.27,30.09,12,2,14,0.00
2012-10-31,48.6,33.8,19.7,31.4,23.4,17.7,94,69,35,30.11,29.95,11,1,12,0.00
2012-11-1,49.2,39.5,29.3,35.3,29.4,14.3,82,67,35,30.07,29.94,18,4,21,0.00
2012-11-2,37.9,32.6,23.5,28.5,25.7,20.3,91,76,64,30.20,30.07,6,1,9,0.00
2012-11-3,43.0,38.0,34.5,33.6,29.4,26.6,86,71,59,30.25,30.18,4,0,4,0.00
2012-11-4,42.7,37.2,31.5,36.0,33.5,29.4,100,87,76,30.24,30.15,6,0,6,0.00
2012-11-5,43.1,41.4,37.3,39.4,37.4,34.2,95,86,77,30.21,29.94,12,0,12,0.03
2012-11-6,43.2,40.3,38.7,38.8,36.7,33.7,96,87,77,30.00,29.77,20,3,20,0.22
2012-11-7,46.1,39.3,32.9,36.8,33.9,30.8,93,81,62,30.14,29.99,11,1,13,0.00
2012-11-8,53.8,40.5,32.1,40.7,34.8,30.0,95,81,58,30.07,29.92,15,0,15,0.00
2012-11-9,53.7,43.9,35.1,42.1,37.7,33.0,93,79,63,30.06,29.91,15,2,15,0.00
2012-11-10,82.3,56.9,43.4,78.6,53.8,40.0,99,90,72,29.91,29.42,16,1,16,0.19
2012-11-11,54.8,34.2,21.9,50.2,31.2,18.9,92,88,84,29.98,29.47,16,2,16,0.00
2012-11-12,37.0,22.9,15.5,30.8,18.8,12.3,92,84,67,30.35,29.97,16,1,18,0.00
2012-11-13,51.7,26.7,10.4,45.0,23.2,7.1,97,87,69,30.42,30.31,10,0,11,0.00
2012-11-14,61.3,38.5,27.6,55.4,35.1,25.5,98,88,69,30.31,30.17,6,0,7,0.00
2012-11-15,59.3,37.2,23.9,45.1,29.6,16.3,95,76,46,30.49,30.13,14,2,16,0.00
2012-11-16,52.4,27.8,13.0,41.6,20.5,8.3,95,75,43,30.52,30.35,9,0,9,0.00
2012-11-17,56.7,40.4,26.1,50.9,35.3,22.8,97,83,66,30.36,30.20,14,0,14,0.00
2012-11-18,65.0,45.1,33.9,46.2,36.9,29.7,91,74,46,30.21,30.05,14,0,15,0.00
2012-11-19,65.7,45.4,33.4,49.9,38.2,28.1,91,77,53,30.09,29.99,10,0,10,0.00
2012-11-20,57.6,36.6,26.7,50.2,32.3,24.2,97,85,59,30.19,30.06,12,0,12,0.00
2012-11-21,65.3,43.9,29.3,53.3,38.9,26.4,97,84,56,30.06,29.69,11,0,13,0.00
2012-11-22,55.0,40.4,22.7,51.8,35.6,17.3,96,83,58,30.02,29.61,25,4,25,0.01
2012-11-23,26.1,20.7,15.0,19.4,14.7,10.5,88,77,65,30.43,30.02,25,7,30,0.00
2012-11-24,27.8,19.4,6.8,20.8,13.7,4.1,93,79,65,30.41,29.85,7,0,10,0.00
2012-11-25,30.0,27.9,22.4,23.8,21.5,10.8,84,77,59,30.21,29.85,18,3,20,0.00
2012-11-26,22.4,14.1,9.5,10.9,7.4,4.7,92,75,59,30.49,30.21,17,3,17,0.00
2012-11-27,38.5,23.4,11.0,27.8,17.4,7.4,91,78,64,30.41,30.14,10,0,13,0.00
2012-11-28,35.0,28.2,22.6,24.8,22.6,19.6,89,80,65,30.39,30.12,11,1,12,0.00
2012-11-29,38.7,29.7,18.3,27.4,23.9,16.4,96,80,62,30.14,30.07,15,2,15,0.00
2012-11-30,35.6,32.8,28.8,31.2,28.8,25.4,93,85,80,30.20,30.08,11,1,15,0.00
2012-12-1,47.2,38.1,33.0,43.9,36.1,31.2,97,92,85,30.08,29.73,9,0,9,0.00
2012-12-2,38.9,32.7,24.8,38.0,31.7,23.6,100,96,91,30.02,29.80,6,0,7,0.00
2012-12-3,52.6,46.5,36.6,52.3,44.4,35.6,99,93,70,29.80,29.55,16,1,16,0.02
2012-12-4,47.4,31.5,15.8,29.6,19.9,8.7,76,63,37,30.43,29.93,6,2,16,0.00
2012-12-5,38.9,26.5,12.1,26.8,17.5,6.3,88,70,53,30.45,29.90,1,0,12,0.00
2012-12-6,43.4,36.1,26.0,34.7,27.3,20.1,83,70,64,30.02,29.80,17,2,17,0.00
2012-12-7,29.7,24.7,16.8,26.0,21.9,14.6,96,89,77,30.09,30.02,13,1,13,0.00
2012-12-8,31.0,27.5,24.2,26.7,24.6,22.4,94,89,82,30.10,30.01,6,0,7,0.05
2012-12-9,31.1,28.8,17.9,30.1,27.3,14.9,96,94,85,30.04,29.83,14,1,17,0.00
2012-12-10,18.0,6.0,-5.5,15.1,2.3,-8.8,89,84,73,30.01,29.91,17,2,17,0.00
2012-12-11,19.7,10.3,-0.4,15.1,7.3,-3.2,97,88,80,30.08,29.88,4,0,4,0.00
2012-12-12,39.4,25.1,1.0,30.4,21.5,-2.0,93,86,66,30.08,29.88,10,0,14,0.10
2012-12-13,32.8,25.3,16.0,26.5,20.8,13.8,95,83,69,30.17,29.94,5,0,6,0.02
2012-12-14,36.6,25.1,9.9,31.0,20.6,7.5,95,83,70,30.18,29.82,9,0,9,0.04
2012-12-15,37.4,35.2,32.3,35.3,33.5,30.9,97,94,80,29.82,29.51,10,1,10,0.84
2012-12-16,33.6,24.2,18.9,32.3,22.3,16.3,100,93,89,29.86,29.58,11,2,12,0.03
2012-12-17,23.7,21.8,20.1,22.5,19.7,17.6,98,92,89,29.85,29.74,6,0,7,0.00
2012-12-18,26.6,24.7,22.7,25.0,22.5,20.9,94,91,86,29.86,29.68,6,0,7,0.00
2012-12-19,30.5,26.9,23.0,27.3,24.3,20.1,95,90,78,30.07,29.86,11,1,12,0.01
2012-12-20,25.6,20.7,12.2,21.0,16.6,8.0,88,84,76,30.13,29.90,23,8,25,0.00
2012-12-21,18.4,10.1,4.9,10.2,5.6,2.0,90,82,69,30.34,30.13,14,2,14,0.00
2012-12-22,25.1,14.9,3.4,16.6,10.3,0.6,100,82,69,30.27,30.03,14,1,14,0.00
2012-12-23,17.6,14.4,9.5,14.8,9.2,5.5,92,80,71,30.20,30.07,16,3,16,0.00
2012-12-24,16.6,12.8,4.9,10.6,6.6,-0.2,87,76,66,30.36,30.07,14,4,14,0.00
2012-12-25,9.0,3.1,-1.6,2.0,-1.8,-5.5,87,79,70,30.58,30.35,11,1,12,0.00
2012-12-26,17.3,9.0,0.9,6.3,2.7,-3.1,92,76,59,30.51,30.31,6,1,6,0.00
2012-12-27,20.0,13.7,3.2,16.9,10.1,0.0,93,86,74,30.33,30.21,5,0,5,0.00
2012-12-28,27.8,17.5,10.7,20.2,14.5,6.9,93,88,60,30.21,30.06,5,0,5,0.00
2012-12-29,15.9,10.9,-0.5,13.7,7.5,-3.9,92,86,75,30.26,30.08,9,0,9,0.00
2012-12-30,25.6,9.9,-2.6,18.7,6.3,-5.7,94,85,72,30.28,29.97,9,0,9,0.00
2012-12-31,14.4,7.3,-9.0,11.0,1.1,-12.8,89,75,61,30.35,30.07,14,2,15,0.00
2013-1-1,18.9,2.5,-12.3,16.2,-1.2,-16.5,90,84,75,30.38,30.12,7,0,7,0.00